RH
54 63 74 78 74 69 60 52 54 52 49 50 52 52 53 54 47 54 70 70 73 72 61 66 72 73 74 72 76 77 77 79 80 82 82 83 81 68 61 60 58 57 55 56 57 58 62 67 70 71 74 76 76 77 79 80 81 83 85 88 87 87 90 89 89 91 94 97 97 96 97 98 95 93 91 84 77 71 62 54 55 51 37 31 39
60 70 80 79 75 69 54 50 53 48 49 48 44 45 45 47 45 53 68 68 72 69 60 68 70 72 77 76 79 80 81 84 84 85 86 85 80 71 66 61 58 58 55 54 55 57 59 60 63 66 67 69 72 74 77 79 80 83 84 87 87 88 88 88 89 90 92 94 96 94 94 95 95 97 94 87 80 75 70 59 58 57 42 35 41
64 75 81 78 74 64 48 50 58 53 50 50 45 36 37 46 39 34 43 56 70 70 68 73 74 76 76 77 81 78 79 82 83 85 86 88 83 77 79 73 62 56 56 57 56 57 59 60 62 63 64 64 67 72 77 80 83 86 88 89 89 88 88 88 89 88 89 92 93 90 89 91 94 98 95 89 83 78 75 65 60 61 48 39 45
72 81 81 77 68 54 46 55 67 62 50 54 58 49 57 64 40 27 36 54 72 74 75 79 79 79 73 75 81 77 79 79 79 86 88 88 87 85 89 91 81 65 57 58 61 62 61 63 65 64 65 64 65 75 85 87 90 91 91 92 91 89 88 89 88 88 89 90 89 86 86 90 95 99 96 91 86 79 76 70 62 61 52 41 44
78 80 79 74 58 46 53 67 74 69 58 65 77 77 81 71 46 49 57 64 80 81 78 80 77 79 77 76 80 78 78 78 78 85 89 90 92 92 91 93 91 79 67 61 61 65 64 65 67 68 68 66 64 70 80 86 90 93 93 94 95 94 92 89 88 88 87 87 87 86 86 90 94 99 98 94 90 82 77 73 67 62 54 42 42
78 77 78 69 52 50 65 76 75 72 75 79 84 86 81 67 51 63 78 75 83 84 77 79 76 77 81 78 81 83 80 82 83 85 90 95 97 95 88 81 79 77 78 76 69 66 67 68 69 70 69 67 67 66 68 72 77 84 90 92 93 94 92 89 89 90 90 90 89 86 86 89 92 95 97 96 93 85 78 76 72 65 57 42 41
80 79 76 68 59 64 71 71 66 70 81 82 85 85 71 65 56 52 78 85 79 82 78 79 81 80 82 79 83 87 85 86 86 89 94 95 96 93 83 72 69 69 75 83 81 72 69 70 69 70 70 68 68 66 65 64 64 71 75 77 79 83 87 89 92 94 93 91 90 88 87 88 92 92 93 95 91 84 79 79 77 71 61 44 38
80 79 75 72 69 73 70 64 69 77 86 84 83 80 61 64 68 55 74 86 77 80 79 80 84 83 84 83 86 88 87 87 86 92 97 94 93 91 82 71 66 67 70 76 80 77 69 66 66 66 69 69 67 66 64 61 60 61 60 61 63 68 81 92 93 94 92 89 89 89 86 88 92 91 94 97 93 88 83 81 82 78 68 48 37
81 78 75 75 74 76 70 68 84 88 86 78 66 64 55 62 79 70 70 79 82 83 80 82 83 82 83 84 89 90 88 86 86 94 96 94 91 88 88 84 78 76 74 73 74 74 67 61 61 63 66 66 65 63 61 60 59 57 55 56 57 60 77 92 94 95 92 89 93 93 89 88 90 90 95 100 99 95 89 83 83 84 76 55 38
78 73 73 73 68 72 75 78 93 89 72 66 60 55 52 65 84 79 70 72 80 82 79 83 82 80 84 87 89 89 90 85 84 94 95 94 91 84 87 91 91 86 77 73 69 65 61 58 59 62 62 60 59 59 58 57 56 56 56 56 59 63 75 87 93 97 94 92 97 98 95 92 91 92 95 99 99 95 94 90 86 85 83 65 42
73 71 73 70 66 72 79 81 87 74 49 51 65 56 50 73 86 81 83 78 72 70 68 76 84 83 84 91 93 90 92 86 84 94 96 94 93 88 87 87 90 87 70 61 58 53 53 55 56 59 59 56 56 55 54 55 55 55 56 58 61 67 76 85 92 98 98 97 98 98 98 97 96 96 96 95 96 96 97 96 90 85 84 74 49
70 71 70 65 72 85 85 79 70 51 34 38 51 43 46 78 88 82 88 83 71 59 53 68 82 84 86 90 92 91 94 89 85 93 94 91 90 92 94 90 89 84 62 48 45 43 44 49 53 55 56 56 54 53 52 49 52 55 57 61 64 69 79 86 92 96 98 99 99 99 99 99 99 98 98 96 96 100 100 98 96 90 86 80 57
70 68 65 65 80 95 93 83 59 36 34 38 35 33 51 83 92 85 83 80 72 52 47 69 78 74 80 88 90 90 93 92 85 86 89 89 91 96 97 93 83 69 52 42 38 36 38 44 50 51 51 51 50 58 62 47 44 51 55 63 66 69 79 84 90 93 95 97 97 99 97 96 100 97 97 98 97 99 100 100 99 93 87 84 66
70 62 63 77 92 97 95 83 54 39 50 55 48 53 70 86 88 84 79 76 70 49 45 64 73 70 69 76 84 88 93 92 86 88 89 87 93 95 96 99 83 57 44 40 36 34 35 39 43 42 43 44 38 54 72 50 35 44 48 57 62 65 72 76 82 87 91 95 95 97 95 96 100 95 93 95 97 99 99 102 98 90 87 85 75
74 72 76 88 95 94 91 76 54 56 76 82 78 79 82 85 83 78 76 80 75 54 42 46 59 73 70 62 65 77 89 84 77 88 91 88 93 90 91 102 87 54 39 34 29 28 29 28 30 29 29 33 26 38 65 49 27 34 38 46 54 57 65 69 74 80 84 90 93 97 97 97 100 96 92 91 93 97 98 102 97 87 89 88 85
80 91 95 90 89 89 85 74 61 68 86 89 80 74 78 84 83 73 69 82 83 58 41 37 43 61 70 64 56 56 65 65 68 81 83 81 88 89 87 97 89 52 26 21 20 20 20 15 16 17 12 18 15 23 53 44 19 25 28 35 45 49 57 63 68 75 78 84 89 96 98 97 99 98 96 92 91 97 99 101 93 84 90 91 92
87 98 101 91 85 81 74 74 70 70 80 79 63 58 70 77 76 70 60 68 83 70 49 38 33 41 57 67 65 59 55 57 63 71 78 79 83 89 82 89 95 53 13 11 12 12 13 7 8 8 5 11 6 13 43 37 13 17 20 26 37 40 48 53 61 70 74 78 82 90 98 97 98 97 96 93 91 98 101 98 93 87 92 92 93
95 100 99 93 83 71 67 78 77 67 67 58 49 57 65 59 56 62 54 48 68 81 70 57 43 32 37 47 51 56 63 69 66 59 68 75 81 89 73 78 93 46 4 9 9 7 9 6 8 6 6 10 5 21 50 32 8 13 14 20 31 34 42 45 50 63 68 73 76 81 91 95 97 96 92 92 91 97 99 98 98 95 95 95 92
93 94 95 95 86 69 61 72 73 61 51 38 39 54 56 49 46 51 49 42 54 72 74 77 69 47 39 44 38 34 37 52 65 62 62 63 73 84 69 76 83 31 1 12 7 7 9 5 9 9 10 11 8 32 58 34 8 12 11 14 23 24 32 36 40 52 59 67 72 74 80 86 92 94 89 89 91 96 98 97 100 98 96 97 94
87 88 94 94 83 64 53 66 71 53 40 34 38 47 47 46 46 43 43 40 44 54 56 65 75 68 63 67 62 52 38 35 54 68 68 59 61 71 66 79 81 29 4 14 8 8 12 8 11 11 11 13 8 19 47 45 19 11 11 11 17 18 20 24 27 37 46 56 65 69 73 76 82 87 87 88 89 91 96 97 99 100 97 96 97
83 86 91 86 73 57 53 68 69 46 36 39 42 44 44 43 41 40 42 40 38 42 43 42 48 57 70 83 83 81 74 60 63 75 73 61 59 64 62 77 82 38 7 12 15 14 14 12 13 13 12 13 11 7 32 58 38 16 15 13 17 21 17 17 17 22 31 42 54 61 67 71 73 80 84 87 89 86 89 95 98 101 100 93 90
84 86 82 74 60 53 60 66 55 39 38 43 44 42 41 39 39 39 39 41 38 35 36 29 22 23 40 67 76 78 84 78 73 77 74 66 65 62 58 67 70 44 16 11 18 18 16 15 13 15 15 13 18 15 26 53 45 24 19 16 22 25 20 19 17 16 21 27 38 50 60 68 70 76 81 85 89 90 87 91 96 98 101 96 87
82 79 73 65 51 49 62 59 43 38 40 43 44 41 38 38 38 40 39 37 34 29 23 14 10 7 10 28 43 52 67 72 71 74 71 68 63 51 51 60 50 38 32 24 22 18 12 15 14 13 16 17 23 27 32 45 39 29 29 25 25 28 25 27 26 23 24 25 28 37 50 62 68 73 80 83 87 93 94 94 95 93 96 99 95
79 72 66 57 43 45 62 58 41 40 43 43 44 38 37 39 37 39 38 31 25 20 12 3 2 4 3 7 14 18 30 40 46 53 56 61 59 44 45 55 43 36 45 44 41 32 15 13 16 14 15 19 26 27 33 45 35 30 47 43 30 32 32 32 36 38 37 36 33 34 42 53 64 69 75 81 83 88 96 98 98 96 94 97 98
81 73 61 52 46 52 65 58 42 43 45 42 41 37 37 39 37 35 31 22 15 8 4 2 1 3 3 4 5 6 7 9 13 21 31 44 56 53 45 46 45 42 46 50 50 43 30 21 16 17 17 15 25 28 31 45 35 28 56 60 38 37 41 36 41 48 50 49 46 44 46 48 56 65 69 77 81 83 89 94 98 101 97 94 95
87 74 57 50 51 54 56 49 43 47 46 40 39 38 38 36 33 30 21 11 6 2 1 1 1 2 3 2 3 4 3 3 4 5 11 22 41 60 60 48 44 44 45 47 44 39 42 39 20 14 19 17 23 31 32 41 37 34 59 68 48 43 50 49 49 54 59 61 60 57 55 53 55 60 65 71 78 81 84 88 93 99 100 98 96
89 74 55 43 44 47 47 47 49 49 43 39 39 38 36 32 27 21 11 4 1 1 2 2 2 2 2 3 3 4 2 3 4 3 3 7 16 41 63 60 47 41 42 47 49 38 34 45 36 14 15 24 26 29 36 37 36 50 69 66 52 49 55 59 59 62 65 65 67 67 64 63 61 61 64 68 73 79 82 84 87 92 98 100 99
83 74 56 43 45 48 48 49 50 47 41 39 40 37 31 25 20 11 3 2 2 1 1 1 3 2 2 3 3 4 4 3 4 3 3 5 6 16 42 58 53 42 35 39 52 49 28 33 47 29 13 24 30 29 40 38 30 52 70 57 46 47 52 58 59 61 64 62 64 68 68 69 68 67 67 67 69 73 78 83 85 87 91 97 100
80 74 54 45 49 48 50 51 48 45 41 39 38 32 24 16 10 5 1 1 1 1 3 2 2 3 3 4 4 4 4 3 3 3 2 6 11 8 12 31 50 52 41 33 43 55 43 30 35 32 17 20 29 27 33 35 26 39 54 46 38 39 44 52 54 52 52 54 56 60 64 65 65 67 68 68 69 70 72 78 83 86 87 91 96
81 71 51 48 51 49 52 52 47 45 41 38 35 24 14 8 3 2 1 2 2 1 2 2 3 4 3 3 4 4 4 3 4 4 4 7 13 13 5 6 30 54 53 38 34 41 50 44 27 17 15 16 21 21 23 27 24 28 37 39 37 40 45 48 48 49 46 44 50 52 54 58 58 60 63 64 67 70 73 75 78 83 85 88 92
81 66 51 51 52 50 52 52 48 46 39 34 29 16 7 3 2 2 1 1 2 2 2 3 3 4 4 4 4 4 4 4 5 5 5 8 9 13 14 3 9 43 58 45 36 29 35 50 41 17 12 17 17 15 19 21 19 23 29 34 38 47 64 62 46 44 43 40 47 49 49 53 54 54 56 57 60 63 69 73 74 78 81 84 89
80 73 67 59 54 52 52 52 50 43 35 30 22 10 3 1 1 2 1 2 3 2 3 3 4 4 4 5 4 4 4 6 10 9 5 7 7 7 17 13 3 26 52 49 44 36 29 44 52 28 12 20 21 12 17 20 18 25 30 32 35 42 65 79 59 42 40 40 44 47 48 52 54 55 55 54 55 56 58 63 67 72 76 79 84
84 89 85 65 55 54 52 52 49 40 32 24 14 4 1 2 2 1 1 3 3 3 4 4 4 5 5 5 5 3 5 8 11 11 6 5 8 4 11 18 6 8 37 53 51 42 35 41 50 35 16 22 25 12 13 20 19 29 31 27 33 34 45 66 61 41 36 40 45 47 49 54 55 56 57 55 55 55 53 54 56 61 67 72 77
92 98 87 66 56 53 52 52 48 39 29 18 9 3 1 2 2 1 2 3 4 4 5 5 4 5 5 5 6 4 5 8 7 8 7 4 7 7 6 12 10 3 19 48 58 50 42 40 44 40 23 20 22 11 11 20 21 31 34 25 29 33 30 39 43 34 31 36 42 45 47 54 57 56 58 57 56 56 54 52 52 51 53 57 63
97 96 81 65 56 52 52 53 49 41 27 13 6 2 2 3 2 2 3 3 5 5 5 6 5 5 6 4 5 6 5 7 6 5 6 5 6 9 6 7 11 7 7 26 49 56 48 40 39 42 33 22 16 9 15 27 26 35 44 32 28 33 28 27 29 25 26 31 36 39 38 43 51 53 55 57 56 57 56 53 53 52 49 49 51
100 97 80 65 58 52 53 54 52 44 27 11 5 2 2 3 2 3 4 4 6 7 5 7 7 9 11 7 6 9 8 7 7 5 5 7 10 14 17 16 12 10 8 12 33 52 54 46 41 39 38 36 22 8 23 46 46 51 60 46 39 42 30 23 26 20 19 30 35 33 31 33 39 44 47 51 54 57 59 57 55 53 51 50 49
101 99 82 66 59 54 55 58 57 48 30 10 3 3 2 3 2 3 5 5 6 7 6 7 9 13 16 15 11 12 12 8 7 7 5 5 10 14 22 29 23 15 13 18 35 51 53 51 47 36 31 36 31 15 21 45 48 52 66 58 51 55 35 18 24 19 17 33 38 28 27 34 36 36 40 44 49 55 58 60 59 56 54 53 51
100 96 81 68 61 58 62 65 62 54 35 12 3 4 3 2 3 3 4 6 6 7 9 8 9 14 18 17 12 10 12 10 7 8 7 5 7 8 14 24 27 23 25 34 47 55 53 50 48 42 31 29 35 28 25 42 44 41 59 63 58 63 48 22 18 18 17 34 45 28 18 32 38 32 34 39 43 51 56 59 61 59 58 56 53
100 94 81 70 64 66 69 69 68 62 43 17 3 4 4 1 3 3 4 7 6 7 10 7 9 16 16 12 11 11 12 10 8 8 8 7 7 5 7 15 23 33 46 53 54 54 55 50 44 44 43 36 38 40 38 51 53 40 48 61 58 62 59 34 17 16 16 32 58 42 12 27 47 37 34 39 38 44 53 56 61 61 59 60 58
99 94 85 73 71 78 77 72 72 67 52 29 8 2 4 2 2 4 5 6 7 8 11 8 11 21 24 23 23 19 11 7 7 8 8 13 18 13 8 13 23 41 59 61 56 53 53 54 48 43 45 41 38 40 38 42 44 36 39 57 61 58 59 46 23 14 12 26 64 59 15 23 60 53 40 42 39 43 50 51 58 62 60 61 62
99 97 93 82 77 81 79 76 74 68 61 45 18 4 4 2 2 4 6 8 8 11 15 15 19 30 35 33 27 17 9 6 6 6 5 10 19 16 9 14 25 43 61 60 55 53 51 53 53 47 44 40 32 30 31 31 33 32 34 50 60 53 53 53 33 16 10 20 59 69 23 17 57 58 38 40 47 51 53 51 57 61 59 61 63
99 100 101 92 80 74 72 73 72 70 68 54 25 6 3 4 3 4 9 13 14 16 21 23 30 39 35 24 17 12 9 7 6 7 7 6 10 9 6 10 18 31 52 62 57 52 50 50 52 52 48 36 22 18 22 27 32 32 30 42 55 52 50 54 40 18 7 12 49 70 31 13 50 58 35 36 49 52 52 53 58 60 58 61 64
99 100 101 97 90 82 75 71 71 73 70 59 36 10 2 4 3 3 12 21 23 22 23 25 31 41 38 20 10 11 10 9 8 7 8 7 7 8 6 6 8 12 27 46 54 54 52 43 39 50 57 45 24 12 14 25 37 41 38 42 57 61 56 56 51 30 8 8 42 69 38 13 44 59 37 34 46 47 46 50 56 57 56 60 66
100 100 97 95 95 91 83 76 77 79 72 66 49 16 2 5 2 4 15 26 36 37 34 34 33 44 53 35 19 22 19 13 13 10 10 11 8 8 9 7 7 7 9 19 31 42 48 38 24 30 49 51 33 12 6 16 27 38 43 43 56 71 64 57 55 37 12 5 32 62 43 14 36 57 42 36 46 45 39 42 50 53 54 61 68
100 99 96 94 91 88 84 79 83 83 75 73 56 18 3 5 0 9 22 27 42 53 53 50 42 45 58 53 44 40 25 19 26 20 10 10 9 7 8 8 8 8 6 7 10 16 25 28 19 13 21 31 26 11 6 10 11 25 39 38 51 73 67 57 56 38 14 4 18 50 48 18 28 54 47 40 49 45 35 33 40 45 49 60 71
100 98 96 93 86 84 86 84 87 87 78 76 60 23 6 4 -1 13 30 30 41 58 60 53 42 41 54 64 63 46 27 40 62 49 25 17 19 21 20 16 14 13 11 9 8 7 10 12 13 10 8 12 14 7 7 9 5 15 30 30 45 70 65 56 60 46 23 7 7 36 51 28 26 48 50 47 50 44 35 28 29 34 39 53 69
100 98 95 92 86 86 89 90 92 89 80 80 66 29 7 3 1 11 25 28 36 52 54 42 37 39 48 66 76 58 46 65 75 65 62 57 46 44 42 32 26 20 12 9 8 7 8 8 7 9 8 7 10 8 7 9 5 11 29 38 49 67 60 50 57 49 29 12 1 21 48 40 30 41 53 55 48 39 36 30 22 24 29 41 59
100 99 95 91 89 89 90 93 95 89 82 82 69 36 8 3 5 7 13 18 26 37 37 29 33 37 38 60 80 70 66 74 55 40 60 73 65 60 59 56 54 42 21 10 11 9 7 8 7 8 9 6 8 9 7 9 6 9 31 46 52 62 58 48 54 50 33 16 2 12 41 48 35 37 51 59 48 35 37 32 19 18 22 29 44
100 99 95 90 90 91 90 92 92 88 84 80 68 40 10 2 7 7 10 18 24 29 25 20 31 34 25 46 76 76 75 73 45 23 36 61 74 72 64 65 74 67 34 8 9 12 7 9 8 6 9 8 7 9 7 8 8 8 20 29 34 51 58 50 53 55 40 22 5 8 37 52 40 34 46 56 48 37 39 36 21 16 17 21 31
99 97 95 91 92 92 91 92 92 90 85 77 67 41 10 3 8 7 16 28 29 30 24 20 36 39 17 20 49 71 82 69 39 24 32 56 77 76 68 71 77 74 46 15 15 18 7 7 11 6 8 10 7 9 9 8 9 9 11 11 16 38 56 55 54 54 45 30 10 8 35 52 40 33 44 54 47 38 43 42 27 15 13 17 25
97 95 94 92 92 92 92 93 94 91 84 77 67 40 11 7 7 7 29 44 32 28 27 22 37 43 20 7 18 43 65 58 35 26 30 53 79 78 70 75 77 67 45 28 42 52 30 16 16 10 9 11 7 8 9 8 9 9 9 10 10 21 42 56 57 51 47 39 17 9 34 53 43 32 45 60 53 41 44 45 34 21 13 14 23
Wind_Speed
3 2 2 1 2 1 1 2 2 3 5 5 5 7 8 9 10 9 9 9 9 10 10 7 6 6 6 6 6 7 7 7 7 7 8 8 8 11 13 13 13 12 12 13 14 14 15 15 16 16 16 17 17 17 17 18 18 20 20 20 21 21 22 23 24 24 24 25 26 26 27 27 26 25 23 22 23 22 21 20 18 19 20 19 17
3 3 2 2 2 0 1 2 3 4 5 5 5 6 6 8 9 9 9 9 9 9 9 6 5 5 5 5 5 5 6 6 6 7 8 8 8 10 12 11 11 11 12 13 13 14 14 15 15 15 16 16 16 16 16 17 17 18 19 19 20 20 21 22 22 23 23 24 25 25 27 27 27 26 25 24 23 22 22 21 19 18 20 21 18
4 3 2 2 2 1 2 2 3 5 5 5 5 5 5 7 8 9 9 8 8 8 7 6 5 4 5 5 5 5 5 6 6 6 7 8 8 9 11 11 11 11 12 13 13 13 13 14 14 14 15 15 15 15 14 16 16 17 18 18 19 19 20 21 21 22 23 23 24 25 25 26 27 28 27 24 24 23 22 22 20 18 20 22 19
5 4 3 3 2 1 2 3 3 5 6 5 5 5 6 7 8 10 9 8 7 7 6 6 5 4 4 4 4 5 5 5 5 6 7 7 8 9 9 10 11 12 13 13 13 13 13 13 14 14 14 14 14 12 12 14 15 16 16 17 18 19 19 19 20 20 21 22 23 23 24 26 28 29 28 25 24 24 22 22 20 18 21 22 20
5 4 4 2 1 2 2 3 4 5 5 4 5 6 5 6 8 9 9 8 7 6 6 5 5 4 4 4 4 4 4 4 5 6 6 5 7 7 7 8 10 13 14 15 14 14 14 14 14 15 14 15 14 12 12 12 13 14 14 15 15 16 17 18 18 18 20 21 22 22 22 24 26 27 28 27 26 25 24 22 21 18 20 23 22
5 4 3 2 1 2 2 3 5 5 4 4 5 6 6 6 8 8 7 7 6 6 5 4 4 4 3 4 3 3 3 3 4 5 5 5 6 7 8 9 10 12 13 14 14 14 15 15 15 15 15 15 15 15 14 14 14 14 14 16 17 17 17 17 17 17 18 20 21 21 22 23 24 25 28 29 26 26 25 23 20 19 20 23 23
5 4 2 2 1 2 2 4 6 5 4 4 5 6 7 7 7 8 7 6 6 6 5 5 4 3 3 3 2 3 3 4 5 4 4 6 7 8 9 11 12 13 12 12 13 14 15 16 15 15 16 15 15 16 16 16 15 15 16 18 19 20 20 18 16 16 17 19 19 20 21 22 23 25 28 30 28 26 26 24 20 18 19 23 24
5 4 2 1 1 2 3 5 6 5 4 5 5 6 7 6 6 8 7 5 6 6 5 5 4 3 3 2 2 3 3 4 5 5 5 7 7 8 10 12 13 14 13 12 12 14 16 17 16 16 15 15 15 16 16 16 17 17 17 18 18 19 19 18 17 17 18 19 19 20 20 21 23 24 25 29 29 27 26 25 21 19 18 22 25
5 4 2 1 1 2 3 6 5 4 4 5 6 6 7 7 6 6 6 5 6 5 5 5 4 3 2 2 2 3 3 4 5 5 5 6 7 8 9 10 12 12 13 14 14 15 18 18 17 15 14 14 15 16 16 17 18 19 19 20 19 18 17 17 17 16 17 18 19 19 20 20 21 22 22 26 29 28 26 25 22 20 19 21 26
5 4 3 1 2 2 3 5 4 4 5 6 7 7 7 6 5 5 6 6 5 5 5 5 4 2 1 2 2 2 3 4 5 5 5 5 7 8 9 10 10 11 13 15 16 16 17 15 14 14 14 14 14 15 16 17 18 19 19 20 20 19 18 17 16 15 15 16 17 18 18 19 19 19 21 25 28 28 27 26 24 21 19 21 25
5 3 2 1 2 1 3 5 4 4 6 6 6 7 7 6 5 5 6 6 6 6 5 5 4 2 1 2 2 2 2 4 5 5 5 6 7 7 8 10 10 12 15 16 16 16 15 14 13 14 14 15 15 15 16 17 17 18 19 19 19 19 19 18 16 15 15 15 16 16 16 17 17 18 20 23 27 30 28 26 25 22 20 20 23
5 3 2 0 1 1 3 5 4 4 6 5 4 5 6 5 5 5 6 6 7 8 6 4 3 2 1 2 2 2 2 4 6 5 5 6 6 7 8 9 9 12 17 18 17 17 15 15 15 14 15 16 17 17 17 17 18 18 19 19 19 19 19 19 17 16 16 16 16 16 16 17 16 18 19 20 26 30 28 25 25 22 20 19 21
4 3 1 0 0 1 2 3 4 5 5 5 5 5 6 5 5 5 6 6 7 9 7 4 3 2 1 1 2 3 2 3 6 5 6 6 6 6 7 9 10 13 17 18 18 17 16 16 16 16 16 17 17 17 16 18 18 18 18 18 18 18 18 19 18 17 17 18 18 18 19 18 18 18 18 19 23 25 27 26 25 23 20 19 20
3 2 1 0 1 1 2 3 4 4 4 4 5 5 5 5 5 5 5 6 7 9 7 5 3 3 1 3 2 2 1 3 7 5 6 6 5 7 8 8 11 15 18 18 18 18 17 18 17 18 18 18 18 16 14 17 19 18 18 18 17 18 18 19 19 18 18 18 19 19 20 19 19 19 17 18 20 23 27 28 25 23 21 19 19
3 2 0 0 1 1 2 3 3 3 3 4 4 5 5 5 5 4 5 6 7 8 7 5 4 3 2 2 2 3 4 2 7 5 7 9 7 8 9 8 11 16 18 18 18 18 18 19 19 19 19 18 19 17 14 16 19 18 18 19 18 18 19 20 20 19 19 19 19 19 19 18 19 19 17 17 18 22 28 29 24 22 22 21 19
3 1 0 1 2 2 2 2 3 3 3 3 4 4 4 5 5 5 5 4 5 7 8 7 7 5 3 2 1 1 2 3 5 4 7 9 8 7 9 9 10 16 20 20 19 19 20 20 20 20 20 19 19 18 14 15 19 19 18 19 19 19 19 20 20 20 20 20 19 19 18 17 18 18 18 16 16 19 26 28 23 22 23 21 19
2 1 1 1 2 1 2 3 3 4 3 3 4 4 4 4 4 5 5 4 4 7 8 9 10 8 6 3 1 2 4 6 5 2 4 7 7 7 10 10 9 17 22 21 20 20 20 20 20 19 19 18 18 17 14 15 19 20 19 20 20 20 20 20 20 20 20 20 20 19 19 17 16 17 18 17 15 16 22 26 23 23 23 21 19
2 1 1 1 2 2 2 3 3 4 4 4 4 4 5 5 4 4 5 5 5 6 7 8 10 10 8 6 4 2 3 6 5 3 2 4 6 7 11 11 9 16 22 20 20 21 20 20 19 19 19 18 18 17 14 15 18 20 20 20 20 21 22 21 21 20 20 20 20 20 20 18 15 15 18 17 16 15 18 23 24 24 22 20 18
3 1 0 1 2 2 2 3 4 4 4 5 5 5 5 4 4 4 5 7 7 7 6 6 8 10 9 7 5 4 4 4 4 4 3 4 5 6 11 10 9 17 20 19 21 22 21 21 20 20 20 20 20 18 15 16 20 20 20 20 20 21 22 22 22 21 20 20 20 21 20 19 17 15 17 17 16 14 14 20 25 25 23 21 20
3 1 1 1 2 1 3 4 4 5 5 5 6 6 4 3 5 6 6 7 7 7 8 7 6 8 9 8 6 6 7 7 5 4 4 4 4 6 10 9 9 18 21 20 22 23 22 23 22 22 21 21 22 20 16 17 21 23 22 21 21 22 22 22 22 21 21 21 21 21 21 21 20 17 16 15 16 15 15 19 25 28 24 20 20
3 1 1 2 2 1 3 4 5 6 6 6 6 5 4 4 6 7 7 8 8 8 8 8 8 7 7 6 5 4 6 7 6 5 4 3 3 6 9 7 7 15 20 20 23 25 25 25 24 23 22 22 21 21 18 16 20 25 23 22 23 23 23 22 22 22 21 21 21 21 21 21 20 19 17 14 15 15 16 18 18 25 26 22 21
2 1 1 1 1 2 4 5 5 6 6 6 5 4 5 6 7 8 8 8 8 9 8 8 8 7 6 5 4 3 3 4 5 5 4 3 3 5 7 6 5 11 17 21 23 25 26 26 26 25 24 24 23 22 21 18 21 25 23 22 23 23 24 23 23 22 22 22 22 22 22 21 21 20 19 17 15 14 16 17 15 21 26 25 24
2 1 1 1 1 3 5 6 6 6 6 6 5 4 6 7 8 8 8 8 8 9 8 8 8 7 7 8 8 7 6 4 5 5 4 4 4 5 5 5 5 9 15 20 23 25 26 26 26 26 25 26 26 25 24 22 21 23 22 23 24 24 24 24 24 24 23 23 22 22 22 21 21 21 20 19 17 14 13 15 17 21 25 28 30
2 1 1 2 3 5 6 6 6 6 6 5 4 5 6 7 8 8 8 8 9 8 8 8 8 9 11 12 12 11 10 9 8 7 6 5 5 5 5 4 5 7 13 17 18 20 25 26 25 26 26 26 27 27 26 24 22 22 20 22 26 26 26 26 26 26 25 24 23 22 22 21 21 21 21 20 18 16 14 12 15 20 25 31 32
3 2 2 3 4 5 6 5 6 6 5 5 4 5 7 8 8 8 8 8 8 8 8 9 10 11 13 13 13 14 14 15 14 13 12 9 5 5 5 5 5 6 9 14 14 15 21 26 26 25 25 27 28 28 28 25 24 25 22 21 26 27 26 27 27 27 27 26 25 24 23 22 22 22 21 21 20 18 16 13 12 16 21 26 28
5 3 3 4 5 6 6 6 6 6 5 5 5 6 7 8 7 7 7 7 8 8 9 10 11 13 14 14 14 15 16 17 17 17 16 13 9 5 4 4 6 7 8 11 15 17 18 21 25 26 24 27 29 27 29 27 24 27 25 21 26 29 27 28 27 27 27 26 26 25 24 23 23 23 22 21 21 20 19 16 13 13 16 20 24
5 3 3 4 5 7 7 6 6 6 6 6 5 6 7 7 7 7 7 8 9 9 10 11 12 13 14 15 16 17 17 18 18 18 18 17 15 11 5 3 4 7 9 10 13 18 19 17 21 26 26 27 29 28 28 28 25 25 23 21 25 28 28 28 28 27 27 26 26 26 26 25 24 24 23 22 22 21 20 19 16 14 13 14 18
4 2 3 6 7 7 7 6 6 6 7 6 5 7 7 6 7 7 8 9 10 10 10 12 13 14 15 16 17 17 17 18 18 18 19 20 19 16 12 7 5 5 8 11 12 14 19 19 18 23 27 28 28 28 28 28 27 24 22 22 26 27 28 30 30 28 27 27 28 28 27 26 26 25 25 24 23 22 21 20 19 16 14 13 14
3 3 6 8 8 8 7 6 7 7 7 6 6 7 6 7 7 8 9 10 10 10 11 12 13 14 15 16 17 17 17 18 18 18 20 20 19 19 17 14 10 6 7 11 13 12 16 20 20 20 26 28 27 28 28 27 28 27 25 26 28 28 30 32 32 30 29 28 29 29 28 27 27 26 26 25 24 23 22 20 19 18 16 13 12
3 5 8 9 8 8 7 7 8 8 8 7 6 6 6 7 8 9 10 11 10 10 11 13 14 13 15 17 17 17 17 17 18 19 20 20 19 19 19 17 15 11 8 9 12 13 13 17 21 22 25 28 27 27 27 26 27 28 28 29 30 29 30 33 33 31 30 30 30 30 29 28 28 27 27 26 26 25 23 21 20 18 17 15 13
4 6 10 10 8 8 8 8 9 9 8 7 6 7 7 8 9 10 11 11 11 11 12 13 14 14 15 16 16 16 17 17 18 19 19 20 19 18 18 17 17 15 10 8 10 14 15 14 18 22 25 27 26 26 27 26 27 28 28 29 30 29 25 27 33 32 30 31 31 30 29 29 29 28 28 27 27 26 24 22 21 19 18 17 14
5 9 10 10 8 8 9 10 10 9 8 7 6 7 8 9 10 10 11 11 11 11 12 13 13 14 15 15 15 16 16 17 17 18 18 19 19 19 18 16 16 16 12 10 10 12 16 16 16 20 25 25 25 25 26 25 26 27 28 28 30 30 23 20 28 32 31 32 32 30 30 30 29 29 28 28 27 27 25 24 22 21 19 18 16
7 11 11 10 9 9 10 11 10 9 8 7 7 8 9 10 10 11 11 11 11 12 13 13 13 14 14 14 14 14 16 16 16 16 17 18 18 19 19 16 16 16 14 11 10 11 14 16 15 18 24 24 22 24 24 24 25 26 28 28 29 31 29 23 25 30 31 33 33 31 31 31 31 30 29 28 27 27 26 25 23 22 20 19 17
9 12 11 10 10 10 11 11 10 9 8 7 8 9 10 10 10 11 12 11 11 12 13 12 12 13 14 14 14 14 15 15 15 16 16 18 18 18 19 18 16 17 16 12 9 9 12 15 15 16 21 23 21 22 24 23 25 25 26 28 28 30 31 28 27 29 32 35 36 33 33 34 33 32 32 30 29 28 27 26 25 23 22 20 18
11 12 12 11 10 11 12 11 11 9 8 8 8 9 10 10 10 11 11 11 11 12 13 12 12 12 13 14 13 13 14 14 15 15 16 17 17 18 19 18 17 18 18 16 11 8 9 13 15 15 19 23 22 22 23 22 23 24 23 26 28 28 30 30 30 30 32 37 39 36 35 36 35 35 35 33 32 32 30 29 27 26 25 23 20
12 13 12 12 11 12 13 12 11 9 8 8 8 9 10 11 11 11 11 11 12 12 13 12 12 12 13 13 13 13 13 14 14 14 15 15 16 17 17 17 17 18 18 18 16 11 9 11 15 17 17 19 21 23 22 19 19 19 18 22 26 26 28 30 29 30 33 37 40 38 37 39 39 38 38 36 36 35 33 32 31 29 27 26 23
12 13 13 13 12 13 13 12 10 9 8 8 8 9 10 11 11 11 11 11 12 12 12 12 12 12 13 13 13 12 12 13 14 14 14 15 15 15 15 14 15 17 17 18 16 12 11 11 13 16 18 18 19 21 23 20 19 18 15 17 21 23 27 30 29 29 33 35 37 38 37 39 40 40 40 40 39 37 35 33 32 31 30 28 27
12 13 14 14 13 14 13 12 11 9 8 7 8 9 9 10 11 11 11 12 12 13 13 12 12 12 12 13 12 13 12 12 13 13 13 14 15 15 15 14 14 15 16 16 14 12 12 11 12 14 17 19 19 19 22 21 20 20 17 15 18 19 23 29 30 29 31 32 32 36 37 36 38 40 40 41 41 39 37 35 32 32 31 30 30
12 14 14 14 14 14 14 13 11 9 8 7 8 9 9 10 11 11 11 12 12 13 13 13 13 12 12 13 13 13 12 12 13 13 13 14 14 14 15 14 14 14 13 11 11 11 11 12 13 14 15 17 18 18 19 19 17 20 20 17 18 18 19 26 31 29 29 29 26 30 36 34 33 37 39 39 41 41 40 38 35 33 32 31 32
13 14 14 15 14 13 14 13 11 10 8 7 7 8 9 10 11 11 11 12 12 13 14 13 13 13 12 12 12 12 12 12 12 13 13 13 13 13 13 14 14 13 10 9 9 10 11 11 13 14 14 16 18 18 19 20 20 22 22 19 18 19 17 21 29 30 29 29 23 24 34 35 27 30 35 36 39 42 41 40 38 36 35 34 34
13 14 14 14 13 13 14 13 11 10 9 7 7 8 9 10 11 12 12 12 12 13 13 14 13 13 12 11 11 11 11 12 12 12 13 13 12 12 12 13 14 13 9 8 9 9 11 12 12 14 15 17 19 20 20 23 23 22 22 20 18 19 17 17 25 30 28 29 25 20 30 36 27 27 34 36 37 40 40 41 40 38 37 37 36
14 15 14 14 13 13 13 13 12 10 9 8 7 8 9 10 11 12 12 13 13 12 13 13 13 12 11 11 12 11 11 11 12 12 12 12 12 12 12 12 13 13 11 9 10 10 11 12 13 14 16 18 20 21 20 21 21 21 22 21 18 19 20 18 23 29 29 29 27 19 26 35 28 24 33 36 35 38 39 40 39 38 38 38 38
15 16 15 15 14 13 13 13 12 11 10 8 8 8 9 10 11 12 12 13 13 12 12 12 13 12 11 10 11 11 11 11 11 12 12 11 12 12 12 12 13 13 13 12 12 12 12 13 14 13 13 16 18 20 20 19 19 18 19 19 17 18 20 20 21 27 30 30 27 18 23 33 28 22 31 36 35 36 39 38 37 37 38 39 39
17 18 18 17 15 14 14 13 12 11 11 9 8 8 9 11 12 13 13 13 13 12 11 11 11 12 11 10 10 10 10 10 11 11 11 11 11 11 11 12 12 13 13 13 13 13 13 13 14 14 12 13 16 18 20 19 18 17 16 17 18 16 17 18 20 26 30 31 28 19 21 30 29 21 27 34 34 35 38 38 37 37 38 40 40
18 19 20 19 17 16 15 14 13 13 12 10 9 9 10 11 13 14 13 13 13 12 11 11 11 12 11 10 10 9 9 10 10 9 11 11 11 11 11 11 12 12 13 13 13 14 14 13 14 15 14 14 15 16 18 18 18 18 17 17 18 16 15 16 19 25 30 30 29 22 19 28 30 21 23 30 31 33 37 39 38 38 39 40 39
19 21 22 21 20 17 16 14 14 14 13 11 10 9 10 12 13 14 14 13 14 13 13 12 12 12 12 11 10 9 10 10 7 6 8 10 9 9 9 10 11 10 11 12 12 13 14 14 13 14 14 14 15 15 17 17 17 19 18 18 19 15 14 13 15 20 27 30 30 24 18 25 30 23 22 27 28 30 36 40 40 39 39 40 38
21 22 22 23 21 19 17 15 14 15 13 12 11 10 11 12 13 15 15 14 14 14 14 13 12 12 13 12 10 9 9 9 8 8 6 7 7 7 7 7 8 8 8 9 10 11 12 12 12 13 13 13 14 15 16 16 16 18 17 16 17 14 12 11 11 16 24 29 30 28 21 23 29 25 22 23 24 28 33 38 41 42 41 41 39
22 23 24 24 22 20 18 17 15 15 14 13 12 11 12 13 14 15 16 15 15 14 14 14 12 12 13 12 11 9 9 9 9 10 10 8 5 4 4 5 5 5 5 7 8 9 10 10 11 11 11 12 13 14 16 16 16 18 16 14 15 13 12 12 11 14 21 27 30 29 24 23 27 27 23 20 21 27 32 35 41 43 43 43 41
25 25 26 25 23 21 20 18 17 16 15 15 14 12 13 14 15 16 16 16 15 15 14 13 12 12 13 13 12 10 9 10 10 10 11 11 7 3 3 4 4 2 2 4 6 7 8 8 9 9 10 11 12 13 15 16 15 17 17 16 17 15 14 15 14 13 17 24 29 29 24 23 26 27 25 19 17 24 29 33 39 43 43 44 43
25 26 26 25 23 21 20 18 18 17 16 15 14 13 14 15 16 17 17 16 16 15 14 14 12 12 12 12 13 12 10 11 10 10 11 11 8 3 3 4 3 1 1 3 5 5 5 7 7 8 9 10 11 12 14 14 14 16 18 18 19 17 14 15 15 13 14 21 28 28 24 23 26 27 26 21 17 21 26 29 36 42 44 45 45
25 27 27 26 24 22 21 20 19 17 16 16 15 14 15 15 17 18 16 15 16 16 14 14 13 12 11 11 13 14 13 13 11 10 11 10 8 4 3 3 2 2 3 3 4 2 3 5 5 7 9 9 11 12 12 12 13 15 17 17 18 18 15 14 14 14 13 18 26 28 24 23 25 26 26 22 18 21 25 26 31 39 43 45 46
Wind_Direction
183 210 218 219 219 199 60 8 339 343 341 341 338 330 335 332 329 332 329 328 324 316 318 324 319 317 321 325 332 336 341 346 346 349 344 343 338 331 333 333 333 333 331 330 326 324 321 319 318 316 316 315 314 313 310 307 304 301 299 297 295 292 289 287 286 284 283 279 276 275 274 271 268 269 270 269 271 274 272 269 265 257 247 243 240
186 211 224 217 226 353 19 335 322 339 344 339 336 330 335 333 327 330 329 326 324 319 324 337 327 324 341 346 356 2 3 7 0 2 355 347 343 334 332 333 337 339 336 337 334 331 327 323 322 318 316 313 311 312 309 306 304 303 303 301 299 296 293 291 289 286 284 281 278 277 273 268 264 263 265 265 265 269 273 270 266 257 244 239 237
186 207 223 226 241 316 326 313 331 352 358 349 339 339 345 335 328 334 339 338 333 328 336 350 341 342 2 360 16 22 12 16 8 6 2 349 348 347 340 336 341 346 343 343 343 341 337 332 328 324 322 318 315 314 312 308 307 305 304 304 303 299 296 294 292 290 288 285 282 279 274 268 263 258 258 261 261 263 268 269 265 257 242 234 234
193 205 217 229 251 285 293 312 353 5 0 350 342 350 357 338 340 355 359 358 346 341 353 356 351 360 9 7 21 27 20 20 9 3 7 359 358 358 351 345 343 345 345 347 348 345 342 340 336 334 333 329 326 326 323 319 315 310 309 309 306 302 300 298 296 294 293 290 287 284 277 270 265 257 254 255 258 259 262 266 264 258 242 231 230
199 204 211 217 235 278 301 345 9 8 355 358 355 350 356 344 354 5 2 6 353 348 5 354 354 4 9 20 22 32 29 18 13 4 1 356 2 1 353 352 347 344 345 345 347 344 341 341 339 338 336 334 335 333 328 323 317 313 314 313 307 304 303 300 299 296 295 293 289 287 281 273 268 261 254 251 254 257 257 260 262 259 244 230 227
202 203 207 205 227 289 342 11 3 8 358 9 4 341 351 356 7 13 360 3 353 350 4 349 354 359 6 25 18 32 29 15 21 1 344 344 0 4 355 354 352 348 349 346 345 343 341 340 340 339 336 337 340 336 331 326 317 307 302 300 297 298 299 300 303 303 301 299 294 290 286 278 269 262 257 251 251 256 255 255 258 258 247 231 223
205 197 193 203 251 309 18 13 2 14 357 3 8 341 352 3 15 28 18 3 352 353 356 346 355 353 12 28 13 29 19 15 10 329 342 11 7 6 359 355 351 348 351 352 347 343 342 342 340 339 336 337 340 339 338 334 329 318 305 300 298 296 294 294 302 311 311 307 301 295 290 285 273 265 259 250 245 249 252 253 255 256 250 234 222
202 184 187 220 288 328 16 9 7 19 356 0 5 343 358 13 17 27 28 7 352 358 355 347 353 357 19 21 11 28 11 15 359 328 4 23 10 11 4 355 349 346 348 350 349 345 345 345 342 339 337 337 337 338 340 338 336 333 326 323 319 311 306 300 298 305 310 310 308 302 294 289 280 271 261 249 241 243 249 251 253 253 251 237 223
195 178 182 222 316 338 6 7 9 13 5 4 359 355 11 20 14 17 29 21 355 355 359 351 355 9 17 12 23 17 5 22 1 342 15 22 14 16 10 2 355 350 347 345 349 349 348 348 345 343 342 340 340 338 340 341 340 339 337 338 337 334 330 324 314 305 303 307 313 310 301 293 285 277 263 247 239 241 247 250 251 250 248 238 225
190 180 182 229 329 357 6 6 8 6 12 12 3 5 12 18 17 7 18 27 14 5 2 355 357 3 342 1 28 3 10 31 3 339 2 14 15 13 6 6 3 358 354 349 350 351 349 351 353 354 352 348 347 344 343 344 344 344 342 344 344 342 339 335 329 320 307 306 313 314 308 298 290 279 262 247 239 241 246 249 250 249 248 240 226
186 181 176 263 340 16 5 5 15 10 15 21 14 6 5 13 17 7 8 13 15 20 14 3 0 341 313 1 16 1 16 32 11 346 356 2 4 8 5 5 2 1 5 1 357 355 354 357 3 3 359 355 353 350 349 348 348 348 348 348 349 348 346 343 336 329 317 306 305 310 311 306 300 288 269 252 243 240 240 244 249 249 248 245 230
182 175 166 280 346 39 4 5 20 21 21 26 24 9 5 11 7 8 17 5 3 15 24 24 7 331 305 336 336 349 6 29 24 4 360 359 355 2 6 7 6 3 7 7 3 1 2 2 4 4 2 359 355 351 349 350 351 352 351 350 350 350 351 350 345 334 322 307 297 297 301 307 309 298 279 262 249 239 232 235 244 248 248 247 234
175 164 171 292 46 42 5 16 27 24 30 31 26 18 11 13 6 0 10 11 4 9 26 45 15 332 289 276 307 334 359 37 30 18 12 10 358 356 3 7 9 8 7 5 3 2 5 6 4 2 1 360 356 352 348 347 350 353 352 350 350 351 351 352 349 341 332 319 308 299 295 301 309 304 288 270 256 242 232 229 235 245 250 249 239
172 172 210 30 58 22 10 37 38 30 42 39 28 25 17 12 13 3 354 6 11 11 31 53 23 346 283 204 228 284 244 23 12 22 27 19 2 351 359 5 7 9 6 3 3 3 5 6 1 357 357 357 354 351 347 343 347 351 351 349 348 351 353 353 350 345 340 331 324 316 305 301 305 307 298 277 258 244 235 229 230 243 250 251 245
178 183 202 50 25 16 34 50 52 50 51 47 36 26 19 9 9 15 1 358 7 12 28 46 45 27 322 229 218 238 192 45 3 9 10 7 10 356 356 3 4 9 7 2 4 5 4 2 358 354 353 353 352 350 346 341 342 344 347 349 347 350 353 355 353 349 345 338 334 330 319 307 301 306 307 287 263 248 236 226 227 240 248 253 253
183 170 130 358 5 32 63 70 71 66 53 49 46 29 22 13 4 23 33 14 6 15 27 42 57 61 13 327 293 242 158 36 360 358 353 359 19 9 357 2 2 6 6 4 7 7 5 2 358 354 352 352 350 348 345 342 341 341 344 347 347 348 351 353 355 352 350 345 340 339 334 319 304 302 309 298 277 258 236 222 225 236 241 249 255
173 144 127 8 12 48 76 86 84 74 69 59 48 36 33 26 16 31 46 47 27 18 26 42 53 61 59 43 22 13 14 0 346 342 343 353 18 12 0 6 3 1 5 7 11 12 8 5 2 358 357 357 354 350 346 345 346 344 346 349 347 347 349 351 354 353 352 351 347 345 343 335 314 300 304 304 292 268 235 220 222 230 235 240 247
162 137 124 25 26 57 84 96 94 80 74 64 51 49 48 37 35 45 46 50 53 37 29 34 36 45 67 82 89 77 7 352 347 346 346 359 17 6 359 10 4 359 7 13 17 19 16 15 13 11 9 6 4 360 352 354 355 352 352 351 348 348 348 349 352 351 351 352 352 351 347 343 330 304 296 300 301 281 243 227 225 226 230 232 238
179 199 9 49 46 66 98 106 98 84 71 65 64 66 63 50 52 63 55 51 60 59 51 41 27 28 43 60 73 79 56 35 14 352 342 356 20 9 0 13 5 358 12 24 26 27 25 24 24 21 19 14 11 7 358 1 3 360 359 356 351 349 348 347 349 350 349 351 353 353 350 347 341 321 300 293 296 291 259 241 236 233 232 229 233
209 250 332 73 56 63 112 111 97 85 73 68 72 75 76 71 67 69 63 59 62 63 61 61 52 36 34 36 39 37 33 46 55 28 351 336 9 10 1 11 2 359 15 29 31 33 31 30 29 26 23 17 14 11 2 3 5 3 3 2 357 353 350 348 348 348 348 350 351 353 352 349 345 338 321 299 288 284 271 259 245 236 235 232 232
231 283 349 67 55 91 127 116 100 89 83 79 78 78 82 82 76 71 65 60 60 61 58 54 55 52 45 42 39 30 22 31 45 44 21 356 5 2 359 11 3 2 19 33 32 33 32 32 31 27 25 21 17 14 9 5 5 4 4 6 4 358 354 352 350 349 348 350 351 352 353 350 348 345 337 320 296 280 274 278 252 228 231 237 238
234 317 5 47 61 141 134 117 103 95 94 91 84 86 91 85 76 69 63 59 55 55 52 46 46 49 60 69 65 65 52 27 29 35 31 18 8 1 4 21 15 5 22 36 35 32 30 30 29 27 26 26 23 20 16 11 7 3 3 11 10 3 0 358 356 355 352 351 351 352 353 351 350 348 343 337 323 298 276 276 257 228 230 237 238
212 315 331 67 114 151 136 118 107 100 101 99 94 100 96 82 71 64 57 54 52 49 45 46 49 50 66 82 84 83 84 63 42 35 27 19 18 22 19 32 41 20 22 33 34 33 33 31 29 28 28 29 28 25 22 16 10 6 6 15 16 10 8 7 4 3 360 355 352 352 352 351 351 350 347 345 340 328 297 273 259 241 234 235 235
179 251 231 137 143 153 137 118 111 109 108 107 109 108 94 79 69 63 54 51 53 50 47 54 61 66 70 74 77 80 85 83 75 68 59 44 29 34 37 43 51 31 26 30 28 28 34 34 33 31 31 34 32 29 26 18 13 16 14 14 19 16 12 12 10 9 6 2 358 354 353 352 352 351 350 349 346 340 327 296 268 252 241 240 240
167 177 152 132 150 151 134 119 115 116 117 117 121 109 90 79 69 62 56 54 58 57 60 68 72 75 75 74 78 81 84 85 82 81 77 63 46 46 50 52 55 37 30 35 30 26 32 34 35 35 34 37 35 30 28 19 14 24 22 12 18 20 16 15 14 12 9 6 4 1 357 354 353 352 351 352 351 346 340 328 294 267 252 245 242
160 158 130 132 156 148 131 124 121 123 128 129 126 105 87 79 72 64 60 63 69 70 72 78 80 81 81 81 85 85 84 83 81 81 81 75 69 67 48 42 61 54 39 37 35 32 32 30 32 36 38 39 37 33 30 21 14 25 26 13 16 22 20 19 17 14 11 8 7 5 3 359 357 355 353 353 354 350 347 342 325 299 275 256 245
156 149 132 142 158 149 134 129 129 132 135 135 121 98 87 83 77 71 71 75 77 77 79 83 83 84 86 86 87 86 85 83 81 81 82 80 78 76 64 31 50 57 46 38 33 32 35 34 30 34 40 41 37 35 31 23 18 25 23 15 17 22 23 23 20 16 13 12 12 10 7 5 1 359 357 355 355 353 351 348 341 326 306 282 261
157 145 144 149 155 149 137 134 137 140 137 132 114 99 91 89 86 79 82 83 81 82 86 88 86 86 88 88 87 86 84 83 82 82 81 79 77 75 75 66 45 44 44 42 35 27 34 39 32 29 38 41 35 34 33 24 24 31 23 16 21 24 27 26 22 19 16 15 16 14 11 9 7 5 2 359 357 356 354 352 349 341 328 309 285
160 156 150 150 155 149 140 141 143 141 134 125 112 106 99 94 92 88 88 88 87 90 92 91 89 89 89 88 87 86 84 82 80 80 79 78 74 71 73 75 65 49 38 41 39 27 28 37 36 31 37 41 35 35 36 27 28 36 30 23 25 27 30 28 22 19 18 18 18 16 13 12 11 9 6 3 1 359 358 356 354 350 342 328 309
167 163 149 150 157 149 145 148 144 138 129 123 117 109 102 100 98 96 95 94 93 97 98 95 92 91 90 88 87 86 84 82 79 77 76 76 74 70 68 71 75 67 46 43 45 38 32 34 36 37 41 42 37 36 37 32 31 36 36 31 30 30 29 26 22 19 19 22 20 16 14 14 13 11 8 6 5 3 3 0 358 356 352 344 328
174 157 149 154 157 151 152 149 142 135 127 125 121 109 106 107 104 102 100 98 99 102 101 97 94 93 91 88 89 88 85 81 79 76 76 74 73 72 67 64 73 74 58 51 53 44 42 39 32 36 43 41 36 36 37 33 33 36 38 37 35 34 28 21 22 22 21 25 23 18 17 16 14 14 11 9 7 6 6 4 2 360 358 355 346
174 154 151 155 157 156 156 148 141 135 129 128 121 112 113 114 110 107 105 102 104 107 102 98 96 94 92 90 90 91 87 84 81 78 77 75 72 73 71 63 66 75 70 60 58 45 42 42 31 32 43 43 34 35 38 34 35 37 37 38 38 38 34 21 20 23 25 27 24 20 21 19 17 16 15 13 12 10 9 7 5 2 359 358 355
169 156 154 158 163 164 155 148 143 135 132 131 121 118 119 118 115 112 108 106 108 109 104 100 99 98 96 94 92 91 90 88 86 83 79 76 73 72 73 70 65 72 76 66 57 47 40 41 36 34 43 46 37 37 42 38 39 40 37 38 39 39 39 32 24 26 30 31 27 24 26 24 20 19 18 17 16 16 15 13 10 7 3 359 358
166 157 157 163 169 165 154 148 144 136 135 133 123 124 124 119 117 115 111 111 112 111 107 103 102 102 100 98 96 93 92 90 87 85 81 76 75 73 73 73 68 69 76 75 61 47 42 42 42 37 41 46 41 40 45 42 41 41 37 38 40 38 38 36 31 31 35 35 31 28 32 31 26 25 22 19 19 19 18 18 16 14 11 5 1
166 158 161 170 170 163 155 149 144 139 138 134 126 129 127 120 119 118 116 116 116 114 110 107 106 106 104 101 99 96 94 92 87 82 81 77 74 74 72 72 72 70 73 79 73 52 43 43 43 41 41 44 42 43 45 42 40 40 34 35 38 37 36 36 34 35 38 38 32 28 33 35 31 30 28 24 23 22 19 19 18 16 15 12 7
165 162 165 171 170 164 156 150 148 144 139 133 129 131 129 124 123 122 121 121 120 118 115 112 112 110 108 104 102 100 96 93 88 81 80 79 75 75 73 70 72 73 73 76 75 61 47 42 40 41 42 42 39 42 44 35 31 33 27 28 34 34 34 36 34 35 41 39 31 26 30 33 31 31 31 29 28 26 22 20 19 17 15 13 12
166 164 168 171 169 165 158 154 152 146 139 135 132 134 133 130 129 129 128 126 124 123 119 118 119 115 112 108 104 103 100 95 91 86 82 82 79 78 78 73 72 74 72 70 68 60 52 45 39 39 44 45 40 41 44 37 30 31 24 19 25 27 30 35 35 35 40 41 31 25 28 30 28 27 29 30 30 28 25 23 21 19 17 14 12
174 171 173 172 168 166 162 157 155 148 141 138 136 137 138 137 136 136 133 130 129 127 123 122 124 121 116 114 110 107 105 101 96 91 87 85 83 83 84 83 78 74 70 64 59 56 52 47 42 38 40 43 40 36 40 38 31 33 30 17 19 21 22 29 34 34 38 42 33 25 28 32 27 25 26 27 28 28 27 26 25 23 21 18 15
180 177 178 175 168 168 166 160 157 152 144 141 141 141 143 144 143 141 138 135 133 130 129 128 128 125 120 115 113 110 108 108 103 98 93 87 84 86 88 88 84 76 65 55 50 50 51 47 44 40 35 36 37 31 32 34 30 33 34 23 18 19 15 21 29 31 36 43 35 21 27 35 29 23 25 25 26 27 26 26 27 26 25 23 20
181 180 180 177 171 167 167 164 162 157 151 148 147 147 151 153 150 147 143 139 137 135 133 133 131 126 122 116 113 113 113 113 110 106 101 93 86 87 90 90 87 79 64 52 49 47 49 49 44 41 36 33 35 33 33 36 35 34 36 28 18 19 15 16 24 28 32 43 40 16 22 35 30 20 24 25 25 26 24 24 26 26 27 27 24
181 181 179 180 177 170 169 169 167 164 161 160 157 155 158 161 157 152 147 142 141 139 136 136 133 128 127 125 122 119 116 113 110 107 102 98 93 92 93 92 89 84 72 60 56 51 50 52 46 41 38 36 37 38 37 38 37 34 35 33 23 22 22 18 23 27 29 41 44 17 17 33 32 18 23 26 25 24 22 23 24 24 26 27 25
182 181 177 178 182 179 174 174 172 172 174 172 167 162 163 167 165 158 152 147 144 144 141 139 137 135 136 135 130 122 115 110 109 107 102 98 96 93 92 93 92 91 87 76 68 61 55 55 53 45 39 38 41 42 41 40 37 34 34 34 27 24 25 22 23 26 28 39 46 21 12 31 33 18 23 28 25 23 22 22 22 23 25 26 24
186 185 182 180 182 180 179 180 178 180 183 180 174 169 167 169 169 163 158 153 150 148 147 144 141 142 142 138 130 120 112 107 104 103 102 99 96 91 87 88 90 92 93 90 82 72 63 59 60 55 42 36 40 44 45 42 36 31 30 31 26 20 22 20 18 22 25 35 44 26 9 28 33 18 20 27 26 24 23 23 21 22 26 27 23
189 189 190 188 185 181 182 184 185 189 190 186 182 176 171 173 171 166 163 160 157 155 154 152 148 147 148 143 129 118 113 109 101 97 99 97 93 92 91 89 89 90 91 91 89 83 74 66 63 62 52 40 38 43 47 47 43 36 29 30 28 18 17 18 16 20 23 30 42 35 10 24 33 18 15 24 25 22 23 24 23 22 26 27 23
193 193 195 194 190 187 187 187 190 196 195 190 189 181 175 178 172 166 167 166 163 163 165 165 160 156 157 152 140 135 128 115 101 92 94 96 95 91 89 88 87 87 87 86 87 87 83 76 67 63 61 54 47 46 47 48 50 46 34 31 31 16 8 15 16 20 23 27 39 40 12 19 30 19 10 20 21 19 21 25 25 24 27 28 24
195 196 197 198 195 191 193 193 197 203 200 193 193 186 180 183 175 169 173 173 168 169 174 175 171 165 162 159 157 154 137 123 120 108 87 85 90 87 80 82 82 82 86 85 84 84 82 79 72 65 62 59 55 52 50 47 51 52 41 34 33 14 358 8 9 13 20 23 34 41 19 14 26 20 9 15 17 15 20 24 25 25 27 30 26
198 197 198 200 197 195 197 198 202 207 204 197 197 192 186 186 180 175 177 177 174 175 180 181 175 171 167 164 168 164 146 145 157 152 118 88 86 88 81 81 79 78 85 88 85 84 81 79 74 67 62 61 58 57 55 49 49 53 44 32 31 15 357 9 8 8 18 19 28 38 27 13 21 19 8 10 12 14 18 21 24 26 27 29 28
200 198 199 200 199 198 200 202 207 210 205 201 201 197 193 189 183 181 181 180 178 179 185 185 179 178 172 165 172 174 167 171 168 150 142 132 111 101 100 96 85 74 82 92 89 83 80 78 75 69 63 60 57 56 56 51 47 52 48 34 32 23 7 16 15 8 16 18 23 35 31 14 17 18 11 6 7 12 17 19 22 26 27 28 27
197 197 199 200 200 203 205 207 213 213 206 205 204 200 197 192 186 185 184 183 182 184 190 188 184 188 180 168 174 181 180 187 178 151 141 134 128 139 131 112 105 90 88 101 95 86 80 77 71 67 62 55 52 52 52 48 45 50 53 46 42 34 16 16 16 7 12 16 21 32 32 16 13 17 15 10 5 8 13 16 20 24 27 27 25
196 196 197 199 201 207 209 211 217 216 209 207 207 204 201 195 189 187 186 187 187 188 192 190 189 198 193 178 175 176 187 199 186 161 148 136 134 170 162 126 128 154 170 116 91 77 74 74 65 59 57 50 48 50 49 45 44 48 52 50 48 44 26 14 14 8 8 12 17 28 33 19 13 15 15 11 7 7 9 12 17 22 25 26 23
196 196 196 198 203 208 210 214 218 217 211 208 208 208 204 197 192 186 184 190 193 190 193 194 193 202 204 193 183 177 186 201 190 170 162 146 142 179 181 151 171 210 195 147 113 82 55 62 56 48 45 39 39 43 42 41 43 45 48 49 49 48 39 22 13 10 9 8 12 24 32 21 12 15 15 7 0 3 6 7 13 19 24 25 23